Regional Weather Roundup
Issued by NWS

Home | Current Version | Previous Version | Graphics & Text | Print | Product List | Glossary On
Versions: 1 2 3 4 5 6 7 8 9 10 11 12 13 14 15 16 17 18 19 20 21 22 23 24 25 26 27 28 29 30 31 32 33 34 35 36 37 38 39 40 41 42 43 44 45 46 47 48 49 50
000
ASUS45 KTFX 200219
RWRMT
MONTANA HOURLY WEATHER ROUNDUP
NATIONAL WEATHER SERVICE GREAT FALLS MT
819 PM MDT FRI SEP 19 2014

NOTE: "FAIR" INDICATES FEW OR NO CLOUDS BELOW 12000 FEET WITH NO
SIGNIFICANT WEATHER AND/OR OBSTRUCTIONS TO VISIBILITY.

* THESE STATIONS ARE NOT UNDER NWS QUALITY CONTROL. THEY DO NOT
   REPORT WEATHER SUCH AS PRECIPITATION OR FOG.

MTZ001>007-043-200300-
WEST OF THE DIVIDE
CITY           SKY/WX    TMP DP  RH WIND       PRES   REMARKS
KALISPELL      MOCLDY    61  45  56 SW7       30.03S
MISSOULA       MOCLDY    64  45  50 W5        30.08S
BUTTE          PTCLDY    63  39  41 NW10      30.15R
MULLAN PASS    PTCLDY    50  43  77 VRB5      30.19S
* ESSEX        N/A       57  48  72 SE2        N/A
* LINCOLN      N/A       62  42  48 W5G12      N/A
* LOOKOUT PASS N/A       56  47  72 N2         N/A
* POLSON       N/A       60  42  52 SE1        N/A
* RONAN APT    PTCLDY    66  46  49 N/A        N/A
* SEELEY LAKE  N/A       63  42  46 W3G10      N/A
* THOMP F APT  PTCLDY    64  42  45 NW3G8      N/A
$$

MTZ008-052>055-200300-
SOUTHWEST MONTANA
CITY           SKY/WX    TMP DP  RH WIND       PRES   REMARKS
BOZEMAN        PTCLDY    61  43  52 NW8       30.07R
DILLON         CLEAR     63  41  45 E10       30.09R
W YELLOWSTONE  MOCLDY    57  45  64 W3        30.18R
* THREE FORKS  PTCLDY    70  54  57 NW8        N/A
* BOULDER HILL N/A       59  36  42 N2         N/A
* MONIDA PASS  N/A       60  42  52 W4         N/A
* RAYNOLDS PAS N/A       64  56  75 W7G12      N/A
* WHITEHALL    N/A       68  39  35 NW9G19     N/A
* WISE RIVER   N/A       62  37  40 W11G20     N/A
$$

MTZ009>010-012-014-046-048-049-054-200300-
EAST SLOPES AND CENTRAL MONTANA
CITY           SKY/WX    TMP DP  RH WIND       PRES   REMARKS
CUT BANK       CLEAR     61  39  44 W17       29.95R
GREAT FALLS    CLEAR     63  39  41 W15       29.96S
HELENA         PTCLDY    66  39  37 W9        30.03R
MALMSTROM AFB  CLEAR     66  41  40 W15       29.97R
* CONRAD       CLEAR     64  46  52 SW10G17    N/A
* EAST GLACIER N/A       58  40  51 W27G37     N/A
* MONARCH      N/A       55  37  51 W9         N/A
* PENDROY      N/A       58  42  55 NW12G17    N/A
* ROGERS PASS  N/A       58  40  51 SE7G19     N/A
* SAINT MARY   N/A       59  41  51 S10G24     N/A
* SWEET GRASS  N/A       63  40  43 W11G16     N/A
* WHITE SULPH  N/A       57  37  47 W1G13      N/A
$$

MTZ011-013-016-021-035-040-045-047-050-051-200300-
NORTH CENTRAL MONTANA
CITY           SKY/WX    TMP DP  RH WIND       PRES   REMARKS
HAVRE          FAIR      64  45  50 W9        29.85R
LEWISTOWN      MOCLDY    64  43  47 W12       29.99R
* CHINOOK      CLEAR     66  48  52 CALM      29.84R
* CHESTER      N/A       69  40  35 W15G24     N/A
* DENTON       N/A       62  41  46 SW9        N/A
* GEYSER       N/A       61  41  48 W12        N/A
* JUDITH GAP   N/A       59  45  60 NW8        N/A
* LOMA         N/A       70  42  36 W11G16     N/A
$$

MTZ017>020-022>027-061-062-200300-
NORTHEAST MONTANA
CITY           SKY/WX    TMP DP  RH WIND       PRES   REMARKS
GLASGOW        CLEAR     64  52  65 CALM      29.82R
GLENDIVE       CLEAR     57  48  72 W8        29.86R
JORDAN         PTCLDY    64  48  56 W12G18    29.88R
SIDNEY         PTCLDY    61  50  67 W6        29.83R
WOLF POINT     PTCLDY    64  52  65 W3        29.81R
* BEAVER HILL  N/A       62  47  58 W8         N/A
* CIRCLE       N/A       67  50  55 N/A        N/A
* LINDSAY DVD  N/A       60  47  62 W9         N/A
* NAVAJO       N/A       61  50  67 W8         N/A
$$

MTZ028>042-056>058-200300-
SOUTHCENTRAL AND SOUTHEAST MONTANA
CITY           SKY/WX    TMP DP  RH WIND       PRES   REMARKS
BAKER          CLEAR     61  46  58 W9        29.89R
BILLINGS       PTCLDY    70  43  38 NW6       29.97R
LIVINGSTON     CLOUDY    63  43  48 W7        30.04R
MILES CITY     CLOUDY    72  45  38 W9        29.88R
* LAUREL APT   CLEAR     66  45  47 N/A        N/A
* ROUNDUP APT  PTCLDY    68  43  40 W5         N/A
* ALZADA       N/A       67  47  49 NW5        N/A
* HYSHAM       N/A       66  42  42 NW2        N/A
* LAME DEER    N/A       64  47  54 N6         N/A
* REED POINT   N/A       66  40  39 W4         N/A
* ROSCOE HILL  N/A       62  38  41 SW3        N/A
$$

REGIONAL REPORTS...DAKOTAS
CITY           SKY/WX    TMP DP  RH WIND       PRES   REMARKS
WILLISTON      PTCLDY    61  48  62 NW7       29.79R
DICKINSON      PTCLDY    61  52  72 W6        29.82R
BEACH          N/A       57  48  72 W9        29.87R
CROSBY         PTCLDY    55  55 100 W7        29.80R
TIOGA          CLEAR     54  54 100 W6        29.83R
WATFORD CITY   MOCLDY    59  48  67 CALM      29.79R
BISMARCK       CLOUDY    72  54  53 NW8       29.76R
GRAND FORKS    PTCLDY    64  61  90 N15G24    29.59R
FARGO          CLOUDY    72  57  59 SW10      29.58R
BUFFALO SD     PTCLDY    61  48  62 W12       29.84R
RAPID CITY     PTCLDY    70  46  42 N13       29.91R
$$

REGIONAL REPORTS...WYOMING/IDAHO/WASHINGTON
CITY           SKY/WX    TMP DP  RH WIND       PRES   REMARKS
GILLETTE       CLEAR     63  46  54 N8        29.99R
SHERIDAN       PTCLDY    63  48  58 W8        30.00R
CODY           PTCLDY   N/A N/A N/A N/A        N/A
YELLOWSTONE LA PTCLDY    48  43  83 CALM      30.27R
SALMON         CLEAR     64  45  50 N9        30.04R
MULLAN PASS    PTCLDY    50  43  77 VRB5      30.19S
SAND POINT     MOCLDY    63  54  73 CALM      30.03R
SPOKANE        MOCLDY    72  46  40 SW5       30.04R
$$

REGIONAL REPORTS...ALBERTA
CITY           SKY/WX    TMP DP  RH WIND       PRES   REMARKS
CALGARY        FAIR      64  37  37 W18G29    29.86R
LETHBRIDGE     PTCLDY    64  43  47 W20G30    29.87R
MEDICINE HAT   FAIR      64  50  61 S8        29.77R
EDMONTON       TSTM      59  43  56 NW22G32   29.80R
WATERTON GATE  N/A       61  39  44 W12G22     N/A
CARDSTON       N/A       63  43  48 W21G29     N/A
MILK RIVER     N/A       61  39  44 W10        N/A
$$

REGIONAL REPORTS...SASKATCHEWAN
CITY           SKY/WX    TMP DP  RH WIND       PRES   REMARKS
SWIFT CURRENT  FAIR      57  46  67 SW9       29.80R
REGINA         FAIR      54  50  86 SW8       29.75R
VAL MARIE      N/A       55  46  72 NW3        N/A
ASSINIBOIA     N/A       57  46  67 W3         N/A
CORONACH       N/A       54  50  86 W2         N/A

$$



USA.gov is the U.S. government's official web portal to all federal, state and local government web resources and services.